Showing default

CARTOSAT 3, 44804

Orbit data source: Space-Track

CARTOSAT 3, 44804 is a payload satellite owned by ISRO (IN) in SSO that was launched on Wed, 27 Nov 2019 UTC via a PSLV-XL launch vehicle from the Sirharikota (SRI). Payload-class satellites include a variety of spacecraft equipped with specific instruments for various scientific and technological missions. These include communications satellites like Starlink; space stations such as the ISS; scientific satellites like the Hubble; Earth observation satellites from companies like Planet Labs, Umbra, and HawkEye 360; GPS; miniature CubeSats for education and research; and military/defense satellites.

Loading next visibility...
Identifier
44804, 2019-081A
Orbit
SSO
Country
Flag of ININ / IND
Related business
Manufacturer
ISRO
Mission
Operational Defense Imaging
Bus & Motor
IRS-2, AOCS
Mass
1,625 kg wet, ~1,500 kg dry
Launch date (UTC)
2019-11-27 (6 years ago)
Launch vehicle
PSLV-XL
Launch site
Sirharikota (SRI)
Object type
Payload
Rocket body
Debris
Shape & HBR
Hex Cyl + 2 Pan, Unknown HBR
Radar Cross Section
9.780 m², Large (>1 m²)

Expand to show TLE details & history
Last TLE update: 8 hours ago

TLE from 8 hours ago
0 CARTOSAT 3
1 44804U 19081A   25340.96620336  .00007255  00000-0  34605-3 0  9998
2 44804  97.4590  40.6224 0013953 105.1523 255.1256 15.19297538334288
Epoch: 2025-12-06T23:11Z
TLE epoch observation values (Epoch: 2025-12-06T23:11:19.970Z)
Latitude
-0.00001°
Longitude
-23.19717°
Altitude
513.53 km
Speed
7.606 km/s
True Right ascension
02h 42m 29s
True Declination
0° 00' 00"
Sunlit
Object was in full shadow at epoch
Visualization orbit readout
Latitude
Unknown
Longitude
Unknown
Altitude
Unknown
Speed
Unknown
Apparent Right ascension
Unknown
Apparent Declination
Unknown
Sunlit
N/A
Visualization observer readout
Local Sidereal Time
05:38:56
Azimuth
Unknown
Elevation
Unknown
Doppler factor
Unknown
Orbital elements
Apogee altitude
514.535 km
Perigee altitude
495.327 km
Semi-major axis
6,883.068 km
Eccentricity
0.0014
Inclination
97.459°
RAAN
40.6224°
Arg. of periapsis
105.1523°
True anomaly
254.97114°
Mean anomaly
255.1256°
Eccentric anomaly
255.04836°
Mean motion
3.80076 °/min
Orbital period
94.72 mins
BSTAR
0.00034605
Loading maneuver chart data...
Computing Atmospheric mass density...
Loading historical data...
Loading historical data...
Loading historical data...
Loading historical data...
Loading historical data...
Loading historical data...
Loading historical data...

Documentation

Showing up to 5 results
|